Port Angeles, WA

6:04 AM PST on December 16, 2017 (GMT -0800)
Fairchild International

Weather History for KCLM - May, 2013

Change the Weather History Date:

Monday, May 13, 2013

  Actual Average Record
Temperature  
Mean Temperature 52 °F -  
Max Temperature 60 °F 60 °F 78 °F (1973)
Min Temperature 44 °F 44 °F 34 °F (2006)
Degree Days  
Heating Degree Days 14    
Growing Degree Days 2 (Base 50)    
Moisture  
Dew Point 49 °F    
Average Humidity 86    
Maximum Humidity 96    
Minimum Humidity 66    
Precipitation  
Precipitation 0.25 in - - ()
Sea Level Pressure  
Sea Level Pressure 30.01 in    
Wind  
Wind Speed 6 mph (WSW)    
Max Wind Speed 14 mph    
Max Gust Speed 23 mph    
Visibility 9 miles    
Events Rain    
Averages and records for this station are not official NWS values.
T = Trace of Precipitation, MM = Missing Value Source: NWS Daily Summary

Daily Weather History Graph

Daily Weather History Graph

Search for Another Location

Airport or City:

Trip Planner

Search our weather history database for the weather conditions in past years. The results will help you decide how hot, cold, wet, or windy it might be!

Date:

Astronomy

May. 13, 2013 Rise Set
Actual Time 5:36 AM PDT 8:44 PM PDT
Civil Twilight 5:00 AM PDT 9:21 PM PDT
Nautical Twilight 4:12 AM PDT 10:09 PM PDT
Astronomical Twilight 3:12 AM PDT 11:10 PM PDT
Moon 8:26 AM PDT (5/13) 11:57 PM PDT (5/13)
Length of Visible Light 16h 21m
Length of Day
15h 07m
Waxing Crescent, 13% of the Moon is Illuminated
May 13
Waxing Crescent
May 17
First Quarter
May 24
Full
May 31
Last Quarter
Jun 8
New

Hourly Weather History & Observations

Time (PDT) Temp. Windchill Dew Point Humidity Pressure Visibility Wind Dir Wind Speed Gust Speed Precip Events Conditions
12:28 AM 53.1 °F - 52.0 °F 96% 30.04 in 10.0 mi West 8.1 mph - N/A   Overcast
12:53 AM 53.1 °F - 52.0 °F 96% 30.03 in 10.0 mi SW 3.5 mph - N/A   Mostly Cloudy
1:10 AM 53.1 °F - 51.1 °F 93% 30.02 in 10.0 mi SSE 3.5 mph - N/A   Scattered Clouds
1:26 AM 53.1 °F - 51.1 °F 93% 30.02 in 10.0 mi Calm Calm - N/A   Mostly Cloudy
1:49 AM 53.6 °F - 51.8 °F 94% 30.02 in 10.0 mi WNW 3.5 mph - N/A   Overcast
1:53 AM 53.1 °F - 51.1 °F 93% 30.02 in 10.0 mi West 3.5 mph - N/A   Overcast
2:53 AM 54.0 °F - 51.1 °F 90% 30.01 in 10.0 mi SSW 3.5 mph - N/A   Overcast
3:24 AM 53.1 °F - 51.1 °F 93% 30.03 in 10.0 mi SW 4.6 mph - N/A   Mostly Cloudy
3:53 AM 53.1 °F - 50.0 °F 89% 30.02 in 10.0 mi WSW 3.5 mph - N/A   Partly Cloudy
4:26 AM 52.0 °F - 50.0 °F 93% 30.01 in 10.0 mi SW 4.6 mph - N/A   Mostly Cloudy
4:53 AM 52.0 °F - 50.0 °F 93% 30.01 in 10.0 mi West 3.5 mph - N/A   Scattered Clouds
5:53 AM 51.1 °F - 48.9 °F 92% 30.00 in 10.0 mi SSE 3.5 mph - N/A   Clear
6:53 AM 51.1 °F - 50.0 °F 96% 29.99 in 8.0 mi SSE 3.5 mph - N/A   Clear
7:53 AM 54.0 °F - 52.0 °F 93% 29.99 in 10.0 mi Calm Calm - N/A   Scattered Clouds
8:15 AM 55.9 °F - 51.1 °F 84% 29.98 in 10.0 mi East 3.5 mph - N/A   Mostly Cloudy
8:22 AM 55.9 °F - 52.0 °F 87% 29.97 in 10.0 mi ESE 4.6 mph - N/A   Partly Cloudy
8:53 AM 57.9 °F - 52.0 °F 81% 29.97 in 10.0 mi East 6.9 mph - N/A   Partly Cloudy
9:53 AM 57.9 °F - 51.1 °F 78% 29.94 in 10.0 mi Variable 4.6 mph - N/A   Scattered Clouds
10:53 AM 55.9 °F - 51.1 °F 84% 29.93 in 10.0 mi ENE 5.8 mph - N/A   Mostly Cloudy
11:05 AM 57.0 °F - 52.0 °F 83% 29.93 in 10.0 mi Calm Calm - N/A   Mostly Cloudy
11:13 AM 55.9 °F - 51.1 °F 84% 29.93 in 10.0 mi NNE 5.8 mph - N/A   Overcast
11:44 AM 55.9 °F - 52.0 °F 87% 29.92 in 10.0 mi Variable 5.8 mph - N/A   Overcast
11:53 AM 55.9 °F - 52.0 °F 87% 29.93 in 10.0 mi North 3.5 mph - N/A   Overcast
1:53 PM 54.0 °F - 50.0 °F 86% 29.94 in 8.0 mi WSW 9.2 mph - 0.10 in Rain Light Rain
2:53 PM 55.0 °F - 48.9 °F 80% 29.94 in 10.0 mi West 8.1 mph - 0.03 in Rain Light Rain
3:03 PM 55.0 °F - 52.0 °F 89% 29.94 in 10.0 mi NNW 9.2 mph - 0.00 in Rain Light Rain
3:12 PM 53.1 °F - 51.1 °F 93% 29.96 in 10.0 mi WNW 11.5 mph - 0.01 in Rain Light Rain
3:27 PM 53.1 °F - 50.0 °F 89% 29.97 in 2.5 mi West 5.8 mph - 0.06 in Rain Light Rain
3:35 PM 53.1 °F - 51.1 °F 93% 29.97 in 6.0 mi WNW 6.9 mph - 0.07 in Rain Light Rain
3:53 PM 53.1 °F - 51.1 °F 93% 29.99 in 3.0 mi WNW 8.1 mph - 0.12 in Rain Rain
4:53 PM 53.6 °F - 48.2 °F 82% 30.00 in 10.0 mi West 11.5 mph - N/A   Overcast
5:53 PM 54.0 °F - 43.0 °F 66% 30.03 in 10.0 mi WSW 12.7 mph 23.0 mph 0.00 in   Scattered Clouds
6:53 PM 53.6 °F - 42.8 °F 67% 30.06 in 10.0 mi WSW 13.8 mph 23.0 mph N/A   Overcast
7:53 PM 51.1 °F - 41.0 °F 68% 30.09 in 10.0 mi WNW 13.8 mph - N/A   Clear
8:53 PM 48.9 °F - 39.9 °F 71% 30.13 in 10.0 mi West 11.5 mph - N/A   Clear
9:53 PM 46.9 °F - 39.9 °F 77% 30.16 in 10.0 mi WSW 6.9 mph - N/A   Clear
10:53 PM 48.0 °F - 39.9 °F 74% 30.18 in 10.0 mi WSW 10.4 mph - N/A   Clear
11:53 PM 44.1 °F 41.5 °F 41.0 °F 89% 30.19 in 10.0 mi SSE 4.6 mph - N/A   Mostly Cloudy